Flag for Poland Weather past 2 weeks in Bytom, Poland

Now
34 °F

Broken clouds.


Feels Like: 26 °F
Forecast: 28 / 35 °F
Wind: 10 mph from Southwest

Location: Katowice Airport

Current Time: Jan 29, 2015 at 2:18:44 PM

Latest Report: Jan 29, 2015 at 2:00 PM


Visibility: N/A

Pressure: 29.36 "Hg

Humidity: 81%

Dew point: 28 °F

Location of BytomLocation

Historic Weather in Bytom — Graph

°F

Bytom temperature yesterday

Maximum temperature yesterday: 34 °F (at 12:00 AM)
Minimum temperature yesterday: 30 °F (at 9:00 PM)
Average temperature yesterday: 33 °F

Past Weeks' High & Low Weather Summary

 TemperatureHumidityPressure
High52 °F (Jan 16, 1:30 PM)100% (Jan 17, 7:30 PM)30.24 "Hg (Jan 17, 7:30 PM)
Low23 °F (Jan 26, 9:00 PM)54% (Jan 16, 1:30 PM)29.39 "Hg (Jan 29, 1:00 PM)
Average34 °F90%29.95 "Hg
* Reported Jan 14 1:00 PM — Jan 29 1:00 PM, Bytom, Weather by CustomWeather, © 2014

Note: Actual official high and low records may vary slightly from our data, if they occured in-between our weather recording intervals... More about our weather records

Advertising

Bytom weather history for previous 24 hours

 ConditionsComfort  
Time TempWeatherWind HumidityBarometerVisibility
1:00 PM
Jan 29
34 °FScattered clouds.14 mph87%29.39 "HgN/A
12:30 PM34 °FBroken clouds.14 mph87%29.42 "Hg5 mi
12:00 PM32 °FSnow flurries. Broken clouds.14 mph93%29.42 "Hg4 mi
11:30 AM32 °FSnow flurries. Ice fog.15 mph100%29.42 "Hg1 mi
11:00 AM32 °FSnow flurries. Ice fog.10 mph93%29.42 "Hg1 mi
10:30 AM32 °FSnow flurries. Ice fog.13 mph93%29.42 "Hg1 mi
10:00 AM32 °FSnow flurries. Partly sunny.9 mph87%29.42 "Hg4 mi
9:30 AM32 °FSnow flurries. Broken clouds.10 mph87%29.42 "Hg4 mi
9:00 AM32 °FSnow flurries. Ice fog.14 mph87%29.42 "Hg2 mi
8:30 AM32 °FSnow flurries. Ice fog.12 mph80%29.42 "Hg2 mi
8:00 AM32 °FSnow flurries. Ice fog.10 mph80%29.42 "Hg2 mi
7:30 AM32 °FSnow flurries. Ice fog.10 mph87%29.42 "Hg2 mi
7:00 AM32 °FLight snow. Passing clouds.16 mph80%29.42 "HgN/A
6:30 AM34 °FLight rain. Passing clouds.16 mph70%29.42 "HgN/A
6:00 AM34 °FLight snow. Passing clouds.17 mph70%29.42 "HgN/A
5:30 AM34 °FLight rain. Passing clouds.17 mph70%29.42 "HgN/A
5:00 AM34 °FLight snow. Passing clouds.12 mph70%29.42 "HgN/A
4:30 AM34 °FPassing clouds.16 mph70%29.45 "HgN/A
4:00 AM32 °FPassing clouds.7 mph75%29.45 "HgN/A
3:30 AM32 °FPassing clouds.8 mph75%29.45 "HgN/A
3:00 AM32 °FPassing clouds.6 mph75%29.47 "HgN/A
2:30 AM32 °FPassing clouds.6 mph75%29.47 "HgN/A
2:00 AM32 °FClear.12 mph69%29.50 "Hg10 mi
1:30 AM32 °FPassing clouds.7 mph75%29.50 "HgN/A
1:00 AM30 °FPassing clouds.8 mph80%29.53 "HgN/A
12:30 AM30 °FPassing clouds.9 mph80%29.56 "HgN/A
12:00 AM30 °FPassing clouds.8 mph80%29.56 "HgN/A
11:30 PM
Jan 28
30 °FPassing clouds.7 mph80%29.59 "HgN/A
11:00 PM30 °FPassing clouds.6 mph80%29.59 "HgN/A
10:30 PM32 °FPassing clouds.7 mph75%29.62 "HgN/A
10:00 PM32 °FPassing clouds.8 mph75%29.62 "HgN/A
9:30 PM32 °FPassing clouds.7 mph80%29.65 "HgN/A
9:00 PM30 °FClear.6 mph86%29.68 "Hg4 mi
8:30 PM32 °FClear.6 mph80%29.71 "Hg4 mi
8:00 PM32 °FClear.7 mph80%29.74 "Hg4 mi
7:30 PM32 °FClear.7 mph80%29.74 "Hg4 mi
7:00 PM32 °FPassing clouds.7 mph80%29.77 "Hg4 mi
6:30 PM34 °FFog.8 mph75%29.80 "Hg3 mi
6:00 PM34 °FFog.8 mph81%29.80 "Hg3 mi
5:30 PM34 °FFog.5 mph87%29.83 "Hg3 mi
5:00 PM34 °FPartly cloudy.3 mph81%29.83 "Hg4 mi
4:30 PM34 °FPartly cloudy.3 mph81%29.83 "Hg5 mi
4:00 PM34 °FPartly sunny.3 mph81%29.86 "HgN/A
3:30 PM34 °FPartly sunny.5 mph81%29.86 "HgN/A
3:00 PM34 °FPartly sunny.7 mph81%29.86 "HgN/A
2:30 PM34 °FPartly sunny.8 mph81%29.86 "HgN/A
2:00 PM34 °FPartly sunny.10 mph81%29.89 "HgN/A
Weather by CustomWeather, © 2014

See weather overviewHow to use our weather pages